OpenBCM V1.08-5-g2f4a (Linux)

Packet Radio Mailbox

IZ3LSV

[San Dona' di P. JN]

 Login: GUEST





  
I0OJJ  > KEPS     07.04.25 02:25l 352 Lines 16783 Bytes #18 (0) @ AMSAT
BID : ORB25097.1
Read: GUEST
Subj: 2Line Orbital Elements 25097.AMSAT
Path: IZ3LSV<I0OJJ
Sent: 250407/0025z @:I0OJJ.ITA.EU [Rome] obcm1.08-6-g5b69
From: I0OJJ @ I0OJJ.ITA.EU (Gustavo)
To:   KEPS @ AMSAT
X-Info: This message was generated automatically


QST de W1STR

AMSAT Orbital Elements for Amateur Satellites in TLE Format
From Orbital Analysis Office
New England Sci-Tech STEM Education Center
Natick, MA April 07, 2025
To all radio amateurs


These element sets describe the orbits of various satellites 
in use by the amateur radio community. For details see:
www.amsat.org/keplerian-elements-formats/

A daily update of element sets is available at:
www.amsat.org/tle/daily-bulletin.txt
or without bulletin text:
www.amsat.org/tle/dailytle.txt


AO-07
1 07530U 74089B   25096.88708412 -.00000012  00000-0  21801-3 0  9992
2 07530 101.9952 100.4695 0011896 242.8914 179.1076 12.53688000306085
UO-11
1 14781U 84021B   25096.50338481  .00003484  00000-0  37504-3 0  9991
2 14781  97.7478  64.1754 0007738 175.7893 184.3391 14.89098056213103
AO-27
1 22825U 93061C   25095.95078820  .00000286  00000-0  12635-3 0  9994
2 22825  98.7432 157.1654 0007404 306.6741  53.3760 14.30768143644471
FO-29
1 24278U 96046B   25096.72454312  .00000037  00000-0  70937-4 0  9998
2 24278  98.5823 359.0056 0350479 147.8868 214.4154 13.53242707414383
NOAA-15
1 25338U 98030A   25096.86290067  .00000424  00000-0  19213-3 0  9990
2 25338  98.5419 123.5099 0010339 179.2866 180.8331 14.26934254399312
GO-32
1 25397U 98043D   25096.90567830  .00000273  00000-0  13818-3 0  9996
2 25397  98.9657  74.7134 0002123  58.4580 301.6805 14.24290269389446
ISS
1 25544U 98067A   25096.87866316  .00015471  00000-0  28528-3 0  9993
2 25544  51.6390 300.1961 0004932  19.0955 358.4279 15.49306890504106
NO-44
1 26931U 01043C   25095.88822969  .00000453  00000-0  20067-3 0  9992
2 26931  67.0502 295.0974 0005561 269.1677  90.8788 14.31685036227844
SO-50
1 27607U 02058C   25096.22354178  .00005110  00000-0  65688-3 0  9994
2 27607  64.5554  39.1528 0048764 349.4767  10.5312 14.81350007199909
CO-55
1 27844U 03031E   25096.87814090  .00000867  00000-0  39716-3 0  9991
2 27844  98.6787 105.9690 0009970  19.9166 340.2400 14.23923401129609
CO-57
1 27848U 03031J   25095.46127324  .00000702  00000-0  32920-3 0  9994
2 27848  98.6816 104.6246 0010267  39.8023 320.3906 14.23265895129104
RS-22
1 27939U 03042A   25096.86671865  .00003297  00000-0  53183-3 0  9992
2 27939  98.3223 264.8056 0011107 206.6079 289.8588 14.72106390151457
NOAA-18
1 28654U 05018A   25096.84813540  .00000418  00000-0  24520-3 0  9993
2 28654  98.8436 177.0387 0013216 312.8512  47.1549 14.13567439 24743
CO-58
1 28895U 05043F   25096.36855703  .00005305  00000-0  87769-3 0  9996
2 28895  98.2382 239.9645 0015502 147.8152 212.4003 14.70667913 37731
CO-65
1 32785U 08021C   25096.87041390  .00012159  00000-0  89491-3 0  9992
2 32785  97.7782  67.6213 0011598  70.3755 289.8720 15.03466023919570
AAUSAT2
1 32788U 08021F   25096.49504332  .00234942  00000-0  22748-2 0  9990
2 32788  97.6035  91.4185 0007598 135.7820 224.4048 15.65622280923390
CO-66
1 32791U 08021J   25096.49133565  .00022897  00000-0  11744-2 0  9998
2 32791  97.7242  75.2108 0006008  55.3080 304.8717 15.16538847920855
RS-30
1 32953U 08025A   25096.82342550  .00000066  00000-0  39978-3 0  9999
2 32953  82.4981 266.8336 0019578 182.3858 177.7132 12.43161717765611
NOAA-19
1 33591U 09005A   25096.84418244  .00000384  00000-0  22848-3 0  9994
2 33591  99.0028 161.1773 0013944 179.7449 180.3732 14.13332891833103
SRMSAT
1 37841U 11058D   25095.56578044  .00000627  00000-0  19697-3 0  9998
2 37841  19.9707 187.9695 0011927  69.7542  47.0142 14.11404124695916
ZACUBE-1
1 39417U 13066B   25096.85611761  .00008841  00000-0  78210-3 0  9999
2 39417  97.7735  54.2669 0042900 265.0634  94.5688 14.95825888615388
Delfi-N3xt
1 39428U 13066N   25096.20013911  .00015878  00000-0  16543-2 0  9991
2 39428  97.8357  14.6251 0085352 211.3784 148.2324 14.87181166609681
GOMX-1
1 39430U 13066Q   25096.87015836  .00004515  00000-0  70660-3 0  9992
2 39430  97.6929 319.4263 0134168  36.8637 324.1700 14.67298895606061
LO-74
1 39440U 13066AA  25096.39444227  .00013058  00000-0  13349-2 0  9992
2 39440  97.8440  41.4492 0064321  33.4769 327.0488 14.89141958613086
AO-73
1 39444U 13066AE  25095.84964065  .00016735  00000-0  12913-2 0  9993
2 39444  97.7665  57.6164 0039559 244.3642 115.3492 15.01022981613870
DTUSAT-2
1 40030U 14033W   25096.44742322  .00017443  00000-0  11661-2 0  9994
2 40030  98.0503  65.2409 0007115 280.3559  79.6864 15.07021468587246
EO-80
1 40032U 14033Y   25096.47084248  .00016606  00000-0  11083-2 0  9993
2 40032  98.0377  65.0091 0007589 204.9883 155.0977 15.07090635587234
LILACSAT-2
1 40908U 15049K   25096.85249392  .00020491  00000-0  56654-3 0  9999
2 40908  97.5125 115.7225 0010563  40.8383 319.3650 15.37003394528430
IO-86
1 40931U 15052B   25038.81889873  .00001817  00000-0  15548-3 0  9993
2 40931   6.0001 108.1159 0012838 187.7041 172.2889 14.78568669506492
Horyu-4
1 41340U 16012D   25096.63713789  .00034508  00000-0  10330-2 0  9997
2 41340  30.9971 200.9234 0008846 113.7445 246.4128 15.33286215502958
Lapan A3
1 41603U 16040E   25096.84778190  .00006379  00000-0  22688-3 0  9995
2 41603  97.1397 103.9755 0012732 130.4009 229.8345 15.29236281488040
CAS-2T
1 41847U 16066G   25096.28238013  .00002585  00000-0  37570-3 0  9997
2 41847  98.4230 171.2984 0347055  13.2071 347.7926 14.43288710441748
CAS-4B
1 42759U 17034B   25096.85652252  .00074374  00000-0  10858-2 0  9998
2 42759  43.0104 339.3331 0018649 211.0696 148.9064 15.54538461432653
CAS-4A
1 42761U 17034D   25096.86678254  .00073836  00000-0  10487-2 0  9992
2 42761  43.0141 336.9728 0020169 215.3986 144.5538 15.55252545432676
TechnoSat
1 42829U 17042E   25096.73385534  .00007198  00000-0  56480-3 0  9990
2 42829  97.3920 268.4998 0014537 132.0114 228.2351 15.01137119421149
AO-91
1 43017U 17073E   25095.86456168  .00020698  00000-0  10806-2 0  9990
2 43017  97.5340 328.2925 0177272  27.2527 333.7865 15.03291225399485
S-Net D
1 43186U 18014G   25096.67880818  .00010611  00000-0  63918-3 0  9993
2 43186  97.5675   0.2556 0011138  85.0909 275.1592 15.10925030392726
S-Net B
1 43187U 18014H   25095.68999644  .00012130  00000-0  73063-3 0  9992
2 43187  97.5675 359.2460 0011895  84.6380 275.6207 15.10883105392573
S-Net A
1 43188U 18014J   25096.14960228  .00013222  00000-0  79522-3 0  9990
2 43188  97.5684 359.8424 0011725  83.6935 276.5630 15.10919339392644
S-Net C
1 43189U 18014K   25096.48699637  .00010549  00000-0  63555-3 0  9999
2 43189  97.5702   0.1797 0013190  76.3033 283.9664 15.10897142391242
Ten-Koh
1 43677U 18084G   25096.43984344  .00006586  00000-0  53225-3 0  9994
2 43677  98.0954 266.1407 0010274 128.8200 231.3941 15.00129328350625
PO-101
1 43678U 18084H   25096.80447223  .00005319  00000-0  45660-3 0  9993
2 43678  98.0989 270.5230 0008985 137.9297 222.2616 14.97893928350830
QO-100
1 43700U 18090A   25096.82848877  .00000128  00000-0  00000+0 0  9996
2 43700   0.0210 194.1898 0001513 211.4908 113.7333  1.00269553 23540
MinXSS-2
1 43758U 18099A   25096.73115369  .00025991  00000-0  10992-2 0  9990
2 43758  97.5079 162.6521 0011986  27.5083 332.6786 15.23127455347249
AO-95
1 43770U 18099N   25096.71389479  .00016985  00000-0  89322-3 0  9994
2 43770  97.4990 155.5476 0012276  79.0862 281.1751 15.15666102346870
RANGE-A
1 43773U 18099R   25096.40072012  .00011404  00000-0  73776-3 0  9992
2 43773  97.4571 146.6698 0012818  58.7838 301.4645 15.08271580346540
MOVE-II
1 43780U 18099Y   25096.75312671  .00143431  00000-0  22083-2 0  9996
2 43780  97.4718 168.6484 0000627 306.8965  53.2230 15.53692636347824
SNUSat 2
1 43782U 18099AA  25096.10240590  .00017026  00000-0  95759-3 0  9998
2 43782  97.4671 152.2078 0012420  24.1765 336.0047 15.13270453346747
SnugLite
1 43784U 18099AC  25095.70130084  .00020516  00000-0  10714-2 0  9996
2 43784  97.4488 151.2565 0003920  45.5053 314.6500 15.15930554346807
ITASat 1
1 43786U 18099AE  25096.10653628  .00014810  00000-0  86726-3 0  9994
2 43786  97.4642 151.9016 0015936  72.7194 287.5778 15.11805683346712
EAGLET 1
1 43790U 18099AJ  25096.88101732  .00008776  00000-0  56811-3 0  9994
2 43790  97.4845 152.8101 0013406  54.3832 305.8644 15.08314758346464
ESEO
1 43792U 18099AL  25096.20049418  .00004595  00000-0  35184-3 0  9999
2 43792  97.4581 146.2513 0012485  33.0975 327.1029 15.02286092346158
CSIM
1 43793U 18099AM  25096.85599411  .00139735  00000-0  21174-2 0  9992
2 43793  97.4903 170.8928 0003843 319.5026  40.5941 15.54141633347683
JO-97
1 43803U 18099AX  25096.39833723  .00024435  00000-0  11712-2 0  9997
2 43803  97.4734 156.1074 0007368  21.7497 338.4049 15.18882569347022
Suomi 100
1 43804U 18099AY  25095.72158533  .00021576  00000-0  10990-2 0  9993
2 43804  97.4796 154.9046 0012619  20.8024 339.3720 15.16738152346860
ISAT
1 43879U 18111D   25096.73187090  .00031567  00000-0  11998-2 0  9992
2 43879  97.5987   9.8432 0012054  69.3690 290.8840 15.26667585341920
UWE-4
1 43880U 18111E   25095.96624734  .00032759  00000-0  13741-2 0  9991
2 43880  97.5929   7.9623 0015190  79.0625 281.2320 15.23315693341787
Sparrow
1 43881U 18111F   25096.76159454  .00033821  00000-0  12452-2 0  9992
2 43881  97.6124  12.5179 0010258  99.5675 260.6723 15.27724369342031
Prox-1
1 44339U 19036A   25096.39616663  .00022359  00000-0  29760-2 0  9991
2 44339  23.9965 122.8961 0007423  66.8552 293.2726 14.78178638308595
SONATE
1 44400U 19038Q   25096.58898234  .00133175  00000-0  10884-2 0  9995
2 44400  97.7026 116.0887 0010566 124.2567 235.9696 15.70083720319467
Taurus 1
1 44530U 19059C   25096.88145856  .00015667  00000-0  29517-2 0  9998
2 44530  98.5976 233.3306 0010325 225.5881 134.4476 14.64595466294615
